Location: Votelez
(50.0000°N, 15.0000°E)
Time: 05:06:31
(UTC+01:00)

ARIANE 6 FM1 Upper Stage - Pass Details

Date: 18 February 2026
Orbit: 523 x 607 km, 62.0° (Epoch: 11 March)

Event Time Altitude Azimuth Distance (km) Brightness Sun altitude
Rises 18:37:57 0° 312° (NW) 2,661 6.9 -12.6°
Reaches altitude 10° 18:40:09 10° 309° (NW) 1,768 5.9 -12.9°
Maximum altitude 18:44:03 59° 229° (SW) 613 3.1 -13.6°
Drops below altitude 10° 18:47:57 10° 150° (SSE) 1,771 4.9 -14.2°
Enters shadow 18:48:44 - 149° (SSE) 2,084 5.3 -14.3°
